When you browse on this site, cookies collect data to enhance your experience and personalize the content and advertising you see.
Visit our Privacy Policy to learn more. By continuing to use the site, you agree to this use of cookies and data.

Hourly Weather Longavi

Today, 9 August, Sunday

Time Temperature Precipitation Wind Pressure Humidity
00:00 +10°C° 0 mm 1 mps 750 mmHg 86%
01:00 +9°C° 0 mm 1 mps 750 mmHg 87%
02:00 +9°C° 0 mm 1 mps 750 mmHg 87%
03:00 +9°C° 0 mm 1 mps 750 mmHg 87%
04:00 +8°C° 0 mm 1 mps 749 mmHg 87%
05:00 +8°C° 0 mm 1 mps 750 mmHg 88%
06:00 +8°C° 0 mm 1 mps 750 mmHg 89%
07:00 +8°C° 0 mm 1 mps 750 mmHg 90%
08:00 +10°C° 0 mm 1 mps 750 mmHg 85%
09:00 +11°C° 0 mm 1 mps 750 mmHg 80%
10:00 +13°C° 0 mm 1 mps 749 mmHg 75%
11:00 +14°C° 0 mm 2 mps 750 mmHg 74%
12:00 +15°C° 0 mm 2 mps 750 mmHg 73%
13:00 +15°C° 0 mm 2 mps 750 mmHg 72%
14:00 +15°C° 0.1 mm 2 mps 750 mmHg 76%
15:00 +15°C° 0.1 mm 2 mps 750 mmHg 79%
16:00 +14°C° 0.1 mm 2 mps 750 mmHg 83%
17:00 +13°C° 0.3 mm 2 mps 751 mmHg 86%
18:00 +12°C° 0.3 mm 1 mps 752 mmHg 89%
19:00 +11°C° 0.3 mm 1 mps 753 mmHg 92%
20:00 +11°C° 0.1 mm 1 mps 753 mmHg 93%
21:00 +11°C° 0.1 mm 1 mps 753 mmHg 93%
22:00 +11°C° 0.1 mm 1 mps 753 mmHg 94%
23:00 +10°C° 0 mm 1 mps 754 mmHg 93%

Tomorrow, 10 August, Monday

Time Temperature Precipitation Wind Pressure Humidity
00:00 +9°C° 0 mm 2 mps 754 mmHg 93%
01:00 +8°C° 0 mm 3 mps 754 mmHg 93%
02:00 +8°C° 0 mm 3 mps 754 mmHg 91%
03:00 +6°C° 0 mm 4 mps 754 mmHg 88%
04:00 +5°C° 0 mm 4 mps 754 mmHg 86%
05:00 +5°C° 0 mm 4 mps 754 mmHg 86%
06:00 +5°C° 0 mm 3 mps 755 mmHg 86%
07:00 +4°C° 0 mm 3 mps 755 mmHg 86%
08:00 +5°C° 0 mm 3 mps 756 mmHg 82%
09:00 +7°C° 0 mm 4 mps 756 mmHg 78%
10:00 +8°C° 0 mm 5 mps 757 mmHg 75%
11:00 +8°C° 0 mm 5 mps 756 mmHg 70%
12:00 +9°C° 0 mm 5 mps 756 mmHg 64%
13:00 +10°C° 0 mm 5 mps 756 mmHg 59%
14:00 +9°C° 0 mm 5 mps 756 mmHg 60%
15:00 +8°C° 0 mm 5 mps 756 mmHg 61%
16:00 +8°C° 0 mm 5 mps 756 mmHg 63%
17:00 +6°C° 0 mm 5 mps 756 mmHg 65%
18:00 +5°C° 0 mm 5 mps 756 mmHg 68%
19:00 +4°C° 0 mm 4 mps 757 mmHg 71%
20:00 +4°C° 0 mm 4 mps 756 mmHg 72%
21:00 +3°C° 0 mm 4 mps 756 mmHg 73%
22:00 +2°C° 0 mm 5 mps 756 mmHg 74%
23:00 +1°C° 0 mm 4 mps 756 mmHg 75%

Day after tomorrow, 11 August, Tuesday

Time Temperature Precipitation Wind Pressure Humidity
00:00 +1°C° 0 mm 4 mps 755 mmHg 76%
01:00 +1°C° 0 mm 4 mps 755 mmHg 77%
02:00 0°C° 0 mm 4 mps 754 mmHg 77%
03:00 0°C° 0 mm 4 mps 753 mmHg 77%
04:00 0°C° 0 mm 4 mps 752 mmHg 77%
05:00 +1°C° 0 mm 3 mps 752 mmHg 75%
06:00 +1°C° 0 mm 3 mps 752 mmHg 74%
07:00 +1°C° 0 mm 3 mps 751 mmHg 73%
08:00 +3°C° 0 mm 4 mps 751 mmHg 69%
09:00 +5°C° 0 mm 4 mps 750 mmHg 65%
10:00 +7°C° 0 mm 5 mps 750 mmHg 61%
11:00 +8°C° 0 mm 5 mps 749 mmHg 60%
12:00 +9°C° 0 mm 5 mps 749 mmHg 60%
13:00 +10°C° 0 mm 6 mps 748 mmHg 59%
14:00 +10°C° 0 mm 5 mps 748 mmHg 62%
15:00 +9°C° 0 mm 5 mps 748 mmHg 66%
16:00 +10°C° 0 mm 4 mps 748 mmHg 69%
17:00 +7°C° 0 mm 4 mps 748 mmHg 73%
18:00 +5°C° 0 mm 3 mps 748 mmHg 78%
19:00 +5°C° 0 mm 2 mps 749 mmHg 83%
20:00 +4°C° 0 mm 2 mps 749 mmHg 84%
21:00 +4°C° 0 mm 2 mps 749 mmHg 85%
22:00 +4°C° 0 mm 2 mps 749 mmHg 86%
23:00 +3°C° 0 mm 2 mps 749 mmHg 88%

12 August, Wednesday

Time Temperature Precipitation Wind Pressure Humidity
00:00 +3°C° 0 mm 2 mps 749 mmHg 90%
01:00 +3°C° 0 mm 2 mps 749 mmHg 91%
02:00 +3°C° 0 mm 2 mps 749 mmHg 92%
03:00 +3°C° 0 mm 1 mps 749 mmHg 93%
04:00 +3°C° 0 mm 1 mps 749 mmHg 94%
05:00 +3°C° 0 mm 1 mps 750 mmHg 94%
06:00 +3°C° 0 mm 1 mps 750 mmHg 94%
07:00 +3°C° 0 mm 1 mps 750 mmHg 94%
08:00 +5°C° 0 mm 1 mps 751 mmHg 87%
09:00 +6°C° 0 mm 2 mps 751 mmHg 80%
10:00 +8°C° 0 mm 2 mps 751 mmHg 72%
11:00 +9°C° 0 mm 2 mps 751 mmHg 70%
12:00 +10°C° 0 mm 3 mps 751 mmHg 67%
13:00 +11°C° 0 mm 3 mps 751 mmHg 64%
14:00 +11°C° 0 mm 3 mps 751 mmHg 67%
15:00 +11°C° 0 mm 3 mps 751 mmHg 69%
16:00 +10°C° 0 mm 3 mps 751 mmHg 72%
17:00 +9°C° 0 mm 2 mps 752 mmHg 76%
18:00 +7°C° 0 mm 2 mps 752 mmHg 80%
19:00 +5°C° 0 mm 2 mps 753 mmHg 84%
20:00 +5°C° 0 mm 2 mps 753 mmHg 83%
21:00 +6°C° 0 mm 1 mps 753 mmHg 83%
22:00 +6°C° 0 mm 1 mps 753 mmHg 83%
23:00 +5°C° 0 mm 1 mps 753 mmHg 83%

13 August, Thursday

Time Temperature Precipitation Wind Pressure Humidity
00:00 +5°C° 0 mm 1 mps 753 mmHg 83%
01:00 +3°C° 0 mm 2 mps 753 mmHg 84%
02:00 +4°C° 0 mm 1 mps 753 mmHg 84%
03:00 +3°C° 0 mm 1 mps 752 mmHg 85%
04:00 +3°C° 0 mm 1 mps 752 mmHg 85%
05:00 +3°C° 0 mm 1 mps 752 mmHg 85%
06:00 +3°C° 0 mm 1 mps 752 mmHg 85%
07:00 +3°C° 0 mm 1 mps 752 mmHg 85%
08:00 +5°C° 0 mm 1 mps 752 mmHg 78%
09:00 +6°C° 0 mm 2 mps 752 mmHg 71%
10:00 +8°C° 0 mm 2 mps 751 mmHg 64%
11:00 +9°C° 0 mm 2 mps 751 mmHg 63%
12:00 +9°C° 0 mm 2 mps 750 mmHg 62%
13:00 +10°C° 0 mm 2 mps 750 mmHg 61%
14:00 +10°C° 0 mm 2 mps 750 mmHg 64%
15:00 +9°C° 0 mm 2 mps 750 mmHg 67%
16:00 +10°C° 0 mm 1 mps 750 mmHg 71%
17:00 +9°C° 0 mm 1 mps 750 mmHg 72%
18:00 +8°C° 0 mm 1 mps 750 mmHg 74%
19:00 +7°C° 0 mm 1 mps 751 mmHg 76%
20:00 +7°C° 0 mm 1 mps 751 mmHg 78%
21:00 +6°C° 0 mm 1 mps 751 mmHg 80%
22:00 +5°C° 0 mm 1 mps 751 mmHg 82%
23:00 +6°C° 0.4 mm 1 mps 751 mmHg 83%

14 August, Friday

Time Temperature Precipitation Wind Pressure Humidity
00:00 +6°C° 0.4 mm 1 mps 751 mmHg 84%
01:00 +6°C° 0.4 mm 1 mps 751 mmHg 86%
02:00 +5°C° 0.3 mm 2 mps 751 mmHg 87%
03:00 +5°C° 0.3 mm 2 mps 751 mmHg 88%
04:00 +5°C° 0.3 mm 2 mps 751 mmHg 90%
05:00 +6°C° 0 mm 1 mps 751 mmHg 89%
06:00 +6°C° 0 mm 1 mps 751 mmHg 89%
07:00 +6°C° 0 mm 1 mps 752 mmHg 89%
08:00 +8°C° 0 mm 1 mps 752 mmHg 83%
09:00 +10°C° 0 mm 1 mps 752 mmHg 78%
10:00 +12°C° 0 mm 1 mps 752 mmHg 72%
11:00 +13°C° 0 mm 2 mps 752 mmHg 70%
12:00 +13°C° 0 mm 2 mps 751 mmHg 69%
13:00 +13°C° 0 mm 3 mps 751 mmHg 67%
14:00 +12°C° 0 mm 3 mps 751 mmHg 71%
15:00 +12°C° 0 mm 4 mps 751 mmHg 74%
16:00 +11°C° 0 mm 4 mps 751 mmHg 78%
17:00 +9°C° 0 mm 3 mps 751 mmHg 82%
18:00 +8°C° 0 mm 3 mps 752 mmHg 86%
19:00 +5°C° 0 mm 3 mps 752 mmHg 90%
20:00 +5°C° 0 mm 2 mps 752 mmHg 89%
21:00 +4°C° 0 mm 2 mps 753 mmHg 88%
22:00 +4°C° 0 mm 2 mps 753 mmHg 87%
23:00 +3°C° 0 mm 2 mps 753 mmHg 88%
Show more